DW2000 Weather Reports


Display with metric or nautical units.
time (UTC)temp
F
wind
direction
speed
MPH
gust
MPH
rain 1hr
in
rain 24hr
in
rain mn
in
humidity
%
barometer
mb
20260506034020 61 302 0.0 0.0 0.00 0.00 0.00 56 1019.5
20260506033505 62 302 0.0 0.0 0.00 0.00 0.00 54 1019.6
20260506032435 64 302 0.0 2.0 0.00 0.00 0.00 52 1020.0
20260506031932 64 302 1.0 2.0 0.00 0.00 0.00 51 1020.2
20260506031421 65 302 1.0 4.0 0.00 0.00 0.00 49 1020.0
20260506030919 66 302 1.0 4.0 0.00 0.00 0.00 48 1020.3
20260506030413 67 302 2.0 4.0 0.00 0.00 0.00 47 1020.5
20260506025907 68 302 2.0 4.0 0.00 0.00 0.00 46 1020.5
20260506025402 69 310 3.0 9.0 0.00 0.00 0.00 44 1020.7
20260506023839 69 312 5.0 14.0 0.00 0.00 0.00 41 1020.5
20260506023339 70 300 3.0 9.0 0.00 0.00 0.00 41 1020.6
20260506022325 71 312 5.0 12.0 0.00 0.00 0.00 41 1020.9
20260506021820 71 332 6.0 12.0 0.00 0.00 0.00 38 1020.9
20260506021308 71 292 5.0 10.0 0.00 0.00 0.00 38 1020.6
20260506020807 71 291 6.0 10.0 0.00 0.00 0.00 38 1020.6
20260506020257 71 335 5.0 13.0 0.00 0.00 0.00 37 1020.6
20260506015756 71 352 4.0 13.0 0.00 0.00 0.00 37 1020.6
20260506015249 72 316 6.0 12.0 0.00 0.00 0.00 36 1020.9
20260506014237 73 309 7.0 11.0 0.00 0.00 0.00 30 1021.0
20260506013727 74 339 8.0 12.0 0.00 0.00 0.00 29 1021.1
20260506013225 74 345 8.0 15.0 0.00 0.00 0.00 29 1021.3
20260506012719 74 0 8.0 15.0 0.00 0.00 0.00 29 1021.2
20260506012213 74 11 8.0 14.0 0.00 0.00 0.00 30 1021.1
20260506011707 73 359 8.0 14.0 0.00 0.00 0.00 29 1021.0
20260506011157 73 333 9.0 14.0 0.00 0.00 0.00 29 1020.9
20260506010655 73 326 7.0 12.0 0.00 0.00 0.00 30 1020.9
20260506010149 73 359 8.0 16.0 0.00 0.00 0.00 30 1021.0
20260506005643 74 324 10.0 20.0 0.00 0.00 0.00 28 1020.9
20260506004643 74 347 10.0 18.0 0.00 0.00 0.00 29 1021.2
20260506003643 74 302 10.0 18.0 0.00 0.00 0.00 30 1021.0
20260506003140 73 314 9.0 18.0 0.00 0.00 0.00 31 1020.9
20260506002640 73 319 8.0 14.0 0.00 0.00 0.00 32 1020.7
20260506002141 74 321 9.0 18.0 0.00 0.00 0.00 31 1021.0
20260506001638 75 337 10.0 18.0 0.00 0.00 0.00 31 1021.2
20260506001139 76 311 9.0 18.0 0.00 0.00 0.00 30 1021.2
20260506000638 76 301 8.0 15.0 0.00 0.00 0.00 30 1021.3
20260506000136 76 335 8.0 15.0 0.00 0.00 0.00 30 1021.2
20260505235637 75 15 9.0 15.0 0.00 0.00 0.00 30 1021.3
20260505234638 74 357 9.0 15.0 0.00 0.00 0.00 31 1021.1
20260505234135 75 311 9.0 18.0 0.00 0.00 0.00 31 1021.2
20260505233631 75 32 7.0 18.0 0.00 0.00 0.00 31 1021.3
20260505232631 73 14 6.0 11.0 0.00 0.00 0.00 35 1020.9
20260505232123 73 359 6.0 10.0 0.00 0.00 0.00 35 1020.9
20260505231615 73 285 7.0 11.0 0.00 0.00 0.00 32 1020.9
20260505231103 74 328 8.0 13.0 0.00 0.00 0.00 33 1021.2
20260505230603 75 347 9.0 18.0 0.00 0.00 0.00 31 1021.3
20260505230101 76 335 9.0 18.0 0.00 0.00 0.00 31 1021.5
20260505225600 75 27 9.0 15.0 0.00 0.00 0.00 31 1021.5
20260505225101 75 347 9.0 19.0 0.00 0.00 0.00 31 1021.4
20260505224558 75 1 8.0 19.0 0.00 0.00 0.00 31 1021.5
20260505223558 75 319 8.0 16.0 0.00 0.00 0.00 30 1021.4
20260505223056 75 30 8.0 14.0 0.00 0.00 0.00 31 1021.3
20260505221551 74 6 9.0 14.0 0.00 0.00 0.00 32 1021.4
20260505221045 74 3 8.0 14.0 0.00 0.00 0.00 32 1021.5
20260505215541 72 340 6.0 12.0 0.00 0.00 0.00 34 1021.0
20260505215043 72 315 6.0 12.0 0.00 0.00 0.00 34 1021.0
20260505214540 73 1 7.0 14.0 0.00 0.00 0.00 32 1021.1
20260505214040 73 1 6.0 14.0 0.00 0.00 0.00 33 1021.1
20260505213041 72 337 6.0 11.0 0.00 0.00 0.00 32 1021.0
20260505212534 72 349 6.0 11.0 0.00 0.00 0.00 33 1021.0
20260505211511 73 349 5.0 11.0 0.00 0.00 0.00 32 1021.2
20260505210958 73 353 5.0 10.0 0.00 0.00 0.00 31 1021.4
20260505210457 72 56 6.0 11.0 0.00 0.01 0.00 32 1021.1
20260505205950 72 354 8.0 12.0 0.00 0.01 0.00 32 1021.1
20260505204935 72 328 9.0 16.0 0.00 0.01 0.00 32 1020.7
20260505204427 72 346 8.0 16.0 0.00 0.01 0.00 32 1021.1
20260505203921 73 309 6.0 13.0 0.00 0.01 0.00 31 1021.2
20260505203408 73 310 5.0 13.0 0.00 0.01 0.00 30 1021.2
20260505202907 73 326 7.0 15.0 0.00 0.01 0.00 31 1021.1
20260505202400 73 359 8.0 15.0 0.00 0.01 0.00 31 1021.3
20260505201348 74 297 3.0 10.0 0.00 0.01 0.00 37 1021.6
20260505200842 73 328 5.0 10.0 0.00 0.01 0.00 36 1021.4
20260505200332 73 325 5.0 10.0 0.00 0.01 0.00 36 1021.4
20260505195826 72 229 6.0 12.0 0.00 0.01 0.00 38 1021.5
20260505195325 72 340 6.0 13.0 0.00 0.01 0.00 37 1021.5
20260505194818 73 319 6.0 13.0 0.00 0.01 0.00 41 1021.6
20260505194305 72 0 7.0 12.0 0.00 0.01 0.00 39 1021.4
20260505193804 71 16 7.0 12.0 0.00 0.01 0.00 37 1021.3
20260505193259 72 1 4.0 12.0 0.00 0.01 0.00 37 1021.6
20260505192745 72 359 3.0 8.0 0.00 0.01 0.00 41 1021.6
20260505191740 71 295 6.0 11.0 0.00 0.01 0.00 36 1021.1
20260505191234 71 349 7.0 15.0 0.00 0.01 0.00 37 1021.1
20260505190728 70 9 7.0 15.0 0.00 0.01 0.00 38 1021.1
20260505190216 70 1 4.0 11.0 0.00 0.01 0.00 37 1020.9
20260505185716 69 174 2.0 7.0 0.00 0.01 0.00 40 1021.0
20260505185210 70 314 2.0 7.0 0.00 0.01 0.00 40 1021.1
20260505184703 69 315 2.0 4.0 0.00 0.01 0.00 43 1021.0
20260505184157 69 324 2.0 5.0 0.00 0.01 0.00 43 1020.7
20260505183144 69 283 2.0 6.0 0.00 0.01 0.00 44 1020.9
20260505182634 68 250 2.0 6.0 0.00 0.01 0.00 44 1020.6
20260505182132 68 201 3.0 6.0 0.00 0.01 0.00 42 1020.6
20260505181626 69 342 3.0 6.0 0.00 0.01 0.00 41 1020.7
20260505181121 70 6 3.0 8.0 0.00 0.01 0.00 39 1021.0
20260505180614 69 231 4.0 8.0 0.00 0.01 0.00 44 1020.7
20260505180104 69 171 3.0 7.0 0.00 0.01 0.00 45 1020.7
20260505175602 68 172 3.0 7.0 0.00 0.01 0.00 43 1020.5
20260505175101 69 130 3.0 7.0 0.00 0.01 0.00 41 1020.7
20260505174600 68 284 2.0 7.0 0.00 0.01 0.00 45 1020.7
20260505174058 68 150 1.0 5.0 0.00 0.01 0.00 44 1020.4
20260505173032 67 188 3.0 7.0 0.00 0.01 0.00 43 1020.3
20260505172523 67 210 3.0 8.0 0.00 0.01 0.00 45 1020.0
20260505172020 66 218 2.0 8.0 0.00 0.01 0.00 49 1019.8
20260505171519 65 331 2.0 5.0 0.00 0.01 0.00 49 1019.4
20260505171010 64 15 3.0 8.0 0.00 0.01 0.00 47 1019.2
20260505170503 64 325 4.0 8.0 0.00 0.01 0.00 50 1019.2
20260505165952 64 154 4.0 7.0 0.00 0.01 0.00 48 1019.0
20260505165451 63 169 3.0 7.0 0.00 0.01 0.00 49 1018.8
20260505164944 63 116 2.0 6.0 0.00 0.01 0.00 50 1018.8
20260505164440 63 41 2.0 6.0 0.00 0.01 0.00 49 1018.9
20260505163933 64 72 3.0 8.0 0.00 0.01 0.00 49 1019.0
20260505163424 64 327 3.0 8.0 0.00 0.01 0.00 48 1019.3
20260505162920 65 215 2.0 5.0 0.00 0.01 0.00 53 1019.3
20260505162410 64 202 2.0 5.0 0.00 0.01 0.00 51 1018.9
20260505161908 63 250 3.0 6.0 0.00 0.01 0.00 54 1018.8
20260505161403 62 297 3.0 9.0 0.00 0.01 0.00 55 1018.6
20260505160856 63 323 2.0 9.0 0.00 0.01 0.00 52 1018.9
20260505160350 63 229 1.0 7.0 0.00 0.01 0.00 54 1018.8
20260505153308 62 356 2.0 7.0 0.00 0.01 0.00 56 1018.5
20260505152805 62 276 1.0 5.0 0.00 0.01 0.00 59 1018.4
20260505152258 61 295 2.0 5.0 0.00 0.01 0.00 62 1018.1
20260505151750 60 259 2.0 5.0 0.00 0.01 0.00 64 1017.9
20260505150739 59 285 0.0 4.0 0.00 0.01 0.00 67 1017.5
20260505124931 47 268 3.0 5.0 0.00 0.01 0.00 83 1013.3
20260505123915 47 275 3.0 5.0 0.00 0.01 0.00 83 1013.2
20260505122901 47 262 3.0 7.0 0.00 0.01 0.00 84 1013.2
20260505122356 46 238 3.0 6.0 0.00 0.01 0.00 84 1013.2
20260505121854 47 274 3.0 4.0 0.00 0.01 0.00 83 1013.2
20260505121343 47 274 3.0 5.0 0.00 0.01 0.00 83 1013.2
20260505120329 47 273 3.0 7.0 0.00 0.01 0.00 83 1013.2
20260505115824 47 272 3.0 7.0 0.00 0.01 0.00 84 1013.2
20260505115317 47 272 3.0 6.0 0.00 0.01 0.00 83 1013.2
20260505114811 47 239 2.0 6.0 0.00 0.01 0.00 83 1013.2
20260505114301 47 274 2.0 4.0 0.00 0.01 0.00 82 1013.3
20260505113800 47 293 2.0 4.0 0.00 0.01 0.00 82 1013.4
20260505113253 47 286 2.0 4.0 0.00 0.01 0.00 82 1013.4
20260505112747 48 278 3.0 6.0 0.00 0.01 0.00 82 1013.6
20260505112240 48 269 2.0 6.0 0.00 0.01 0.00 82 1013.6
20260505111735 48 272 2.0 4.0 0.00 0.01 0.00 82 1013.6
20260505111222 48 285 2.0 5.0 0.00 0.01 0.00 82 1013.7
20260505101111 48 308 3.0 6.0 0.00 0.01 0.00 81 1013.8
20260505095051 49 1 3.0 6.0 0.00 0.01 0.00 79 1014.2
20260505094540 49 339 3.0 6.0 0.00 0.01 0.00 79 1014.3
20260505093025 50 276 3.0 7.0 0.00 0.01 0.00 78 1014.6
20260505092519 51 258 3.0 7.0 0.00 0.01 0.00 78 1014.7
20260505092014 51 263 3.0 7.0 0.00 0.01 0.00 77 1014.7
20260505091508 51 245 3.0 7.0 0.00 0.01 0.00 77 1014.7
20260505090957 51 271 3.0 6.0 0.00 0.01 0.00 78 1014.9
20260505090455 51 266 3.0 7.0 0.00 0.01 0.00 78 1014.9
20260505085949 51 264 4.0 7.0 0.00 0.01 0.00 78 1014.9
20260505084937 51 248 4.0 9.0 0.00 0.01 0.00 78 1014.7
20260505084427 51 267 4.0 8.0 0.00 0.01 0.00 78 1014.7
20260505083926 51 268 4.0 8.0 0.00 0.01 0.00 78 1014.7
20260505083421 50 248 4.0 7.0 0.00 0.01 0.00 78 1014.6
20260505082915 50 276 4.0 7.0 0.00 0.01 0.00 79 1014.6
20260505082409 50 281 4.0 9.0 0.00 0.01 0.00 78 1014.6
20260505081355 50 237 4.0 9.0 0.00 0.01 0.00 78 1014.6
20260505080849 50 262 5.0 9.0 0.00 0.01 0.00 79 1014.6
20260505080344 50 264 5.0 8.0 0.00 0.01 0.00 79 1014.5
20260505075839 50 264 5.0 10.0 0.00 0.01 0.00 79 1014.5
20260505074824 49 243 4.0 7.0 0.00 0.01 0.00 80 1014.4
20260505074318 49 272 5.0 7.0 0.00 0.01 0.00 80 1014.5
20260505073306 49 264 5.0 8.0 0.00 0.01 0.00 80 1014.5
20260505072755 49 251 5.0 7.0 0.00 0.01 0.00 80 1014.3
20260505071749 49 264 5.0 8.0 0.00 0.01 0.00 80 1014.3
20260505071242 49 281 5.0 7.0 0.00 0.01 0.00 81 1014.2
20260505070736 49 277 5.0 7.0 0.00 0.01 0.00 81 1014.2
20260505070224 49 278 5.0 7.0 0.00 0.01 0.00 80 1014.2
20260505065721 49 275 5.0 6.0 0.00 0.01 0.01 80 1014.1
20260505065217 49 291 5.0 6.0 0.00 0.01 0.01 80 1014.1
20260505064710 49 274 5.0 7.0 0.00 0.01 0.01 80 1014.2
20260505063654 49 276 5.0 10.0 0.00 0.01 0.01 80 1014.2
20260505063153 49 267 5.0 9.0 0.00 0.01 0.01 80 1014.1
20260505062647 49 277 5.0 9.0 0.00 0.01 0.01 80 1014.0
20260505062136 49 281 5.0 9.0 0.00 0.01 0.01 79 1014.1
20260505061126 49 272 5.0 8.0 0.00 0.01 0.01 79 1014.3
20260505060620 50 266 5.0 8.0 0.00 0.01 0.01 79 1014.4
20260505060114 50 276 5.0 8.0 0.00 0.01 0.01 79 1014.4
20260505055604 50 271 4.0 6.0 0.00 0.01 0.01 78 1014.6
20260505055103 50 268 4.0 6.0 0.00 0.01 0.01 78 1014.7
20260505054555 50 274 4.0 5.0 0.00 0.01 0.01 78 1014.7
20260505054049 50 290 4.0 6.0 0.00 0.01 0.01 78 1015.2
20260505053543 50 284 4.0 6.0 0.00 0.01 0.01 79 1015.1
20260505053033 50 278 4.0 6.0 0.00 0.01 0.01 79 1015.1
20260505052024 50 299 4.0 6.0 0.00 0.01 0.01 78 1015.0
20260505051519 50 294 4.0 6.0 0.00 0.01 0.01 78 1015.0
20260505051013 50 283 4.0 6.0 0.00 0.01 0.01 78 1015.1
20260505050508 50 294 4.0 5.0 0.00 0.01 0.01 77 1015.1
20260505035905 53 268 7.0 11.0 0.00 0.01 0.01 71 1014.9
20260505035405 53 283 6.0 9.0 0.00 0.01 0.01 71 1015.0
20260505034903 54 260 6.0 13.0 0.00 0.01 0.01 70 1015.1